User: anonymous   Login
Location: Unspecified
(0.0000°N, 0.0000°E)
Time: 05:48:46
(UTC+00:00)
Language:

O3B FM7 - Orbit

View from above orbital plane
View from above orbital plane
View from above satellite
View from above satellite

Ground track
Ground track

The orbit is defined by the following mean orbital elements,

1 40081U          26145.49129269 +.00000000 +00000-0 +00000-0 0 00006
2 40081   0.0491 351.3043 0002634  70.7446 297.9774  5.00115729    06
Epoch (UTC): 25 May 2026 11:47:27
Eccentricity: 0.0002634
inclination: 0.0491°
perigee height: 8062 km
apogee height: 8070 km
right ascension of ascending node: 351.3043°
argument of perigee: 70.7446°
revolutions per day: 5.00115729
mean anomaly at epoch: 297.9774°

The dashed part of the orbit path shows where the satellite is in the earth's shadow,  

DLR